visible

Flag for Ukraine Weather past 2 weeks in Kyiv, Ukraine

Now
54 °F

Light rain. Mostly cloudy.


Feels Like: 49 °F
Forecast: 41 / 51 °F
Wind: 17 mph from Northwest

Location: Kyiv

Current Time: Sep 23, 2014 at 1:32:03 PM

Latest Report: Sep 23, 2014 at 1:00 PM


Visibility: N/A

Pressure: 29.50 "Hg

Humidity: 100%

Dew point: 54 °F

Location of KyivLocation

Historic Weather in Kyiv — Graph

°F

Kyiv temperature yesterday

Maximum temperature yesterday: 57 °F (at 11:30 AM)
Minimum temperature yesterday: 52 °F (at 12:30 AM)
Average temperature yesterday: 54 °F

Past Weeks' High & Low Weather Summary

 TemperatureHumidityPressure
High79 °F (Sep 8, 2:30 PM)100% (Sep 9, 5:00 AM)30.36 "Hg (Sep 9, 5:00 AM)
Low39 °F (Sep 19, 3:30 AM)24% (Sep 20, 2:30 PM)29.50 "Hg (Sep 23, 6:00 AM)
Average59 °F65%30.11 "Hg
* Reported Sep 8 12:00 Noon — Sep 23 12:30 PM, Kyiv, Weather by CustomWeather, © 2014

Note: Actual official high and low records may vary slightly from our data, if they occured in-between our weather recording intervals... More about our weather records

Advertising

Kyiv weather history for previous 24 hours

 ConditionsComfort  
Time TempWeatherWind HumidityBarometerVisibility
12:30 PM
Sep 23
54 °FLight rain. Mostly cloudy.13 mph94%29.50 "HgN/A
12:00 PM54 °FLight rain. Mostly cloudy.15 mph94%29.50 "Hg6 mi
11:30 AM54 °FLight rain. Mostly cloudy.10 mph94%29.50 "HgN/A
11:00 AM54 °FLight rain. Mostly cloudy.13 mph94%29.50 "Hg4 mi
10:30 AM54 °FLight rain. Mostly cloudy.13 mph94%29.50 "Hg6 mi
10:00 AM54 °FLight rain. Mostly cloudy.13 mph94%29.50 "Hg5 mi
9:30 AM54 °FLight rain. Mostly cloudy.10 mph94%29.50 "Hg6 mi
9:00 AM54 °FLight rain. Mostly cloudy.13 mph94%29.50 "Hg6 mi
8:30 AM54 °FLight rain. Mostly cloudy.13 mph94%29.50 "HgN/A
8:00 AM54 °FLight rain. Mostly cloudy.10 mph94%29.50 "Hg6 mi
7:30 AM54 °FLight rain. Fog.10 mph94%29.50 "Hg3 mi
7:00 AM54 °FLight rain. Fog.6 mph100%29.50 "Hg2 mi
6:30 AM54 °FLight rain. Mostly cloudy.6 mph100%29.50 "HgN/A
6:00 AM55 °FLight rain. Mostly cloudy.3 mph100%29.50 "Hg5 mi
5:30 AM55 °FLight rain. Fog.3 mph100%29.53 "Hg3 mi
5:00 AM55 °FLight rain. Fog.3 mph100%29.53 "Hg2 mi
4:30 AM55 °FLight rain. Fog.1 mph100%29.53 "Hg3 mi
4:00 AM55 °FLight rain. Fog.6 mph100%29.53 "Hg2 mi
3:30 AM55 °FLight rain. Fog.1 mph100%29.56 "Hg2 mi
3:00 AM55 °FSprinkles. Fog.1 mph100%29.56 "Hg2 mi
2:30 AM55 °FSprinkles. Fog.1 mph100%29.56 "Hg2 mi
2:00 AM55 °FRain showers. Fog.1 mph100%29.59 "Hg1 mi
1:30 AM57 °FSprinkles. Partly cloudy.1 mph94%29.59 "Hg4 mi
1:00 AM57 °FSprinkles. Partly cloudy.6 mph94%29.59 "Hg5 mi
12:30 AM57 °FMostly cloudy.6 mph94%29.59 "Hg6 mi
12:00 AM57 °FPassing clouds.6 mph94%29.62 "Hg5 mi
11:30 PM
Sep 22
57 °FPassing clouds.8 mph94%29.62 "Hg4 mi
11:00 PM55 °FMostly cloudy.6 mph100%29.65 "Hg4 mi
10:30 PM57 °FMostly cloudy.3 mph88%29.65 "Hg6 mi
10:00 PM57 °FOvercast.6 mph88%29.65 "HgN/A
9:30 PM57 °FLow clouds.6 mph88%29.68 "HgN/A
9:00 PM55 °FLow clouds.8 mph94%29.68 "HgN/A
8:30 PM55 °FOvercast.8 mph94%29.68 "HgN/A
8:00 PM55 °FLow clouds.8 mph94%29.68 "HgN/A
7:30 PM55 °FOvercast.8 mph94%29.71 "HgN/A
7:00 PM55 °FOvercast.8 mph94%29.71 "HgN/A
6:30 PM55 °FOvercast.8 mph88%29.71 "HgN/A
6:00 PM55 °FOvercast.6 mph88%29.71 "HgN/A
5:30 PM55 °FMore clouds than sun.8 mph88%29.74 "HgN/A
5:00 PM55 °FMore clouds than sun.10 mph88%29.74 "HgN/A
4:30 PM54 °FDrizzle. Fog.6 mph100%29.74 "Hg2 mi
4:00 PM54 °FDrizzle. Mostly cloudy.8 mph94%29.74 "Hg3 mi
3:30 PM55 °FDrizzle. Mostly cloudy.8 mph88%29.74 "Hg5 mi
3:00 PM54 °FDrizzle. Mostly cloudy.8 mph94%29.77 "HgN/A
2:30 PM54 °FDrizzle. Fog.8 mph94%29.77 "Hg3 mi
2:00 PM54 °FDrizzle. Fog.8 mph94%29.77 "Hg3 mi
1:30 PM55 °FLight rain. More clouds than sun.8 mph88%29.77 "Hg5 mi
1:00 PM54 °FLight rain. More clouds than sun.8 mph94%29.80 "HgN/A
Weather by CustomWeather, © 2014

See weather overviewHow to use our weather pages